Location: Menands
(42.6920°N, 73.7246°W)
Time: 08:08:16
(UTC+00:00)

Cosmos 1844 Rocket - Pass Details

Date: 18 February 2026
Orbit: 823 x 844 km, 71.0° (Epoch: 12 March)

Event Time Altitude Azimuth Distance (km) Brightness Sun altitude
Rises 23:09:08 0° 145° (SE) 3,383 5.6 -7.7°
Reaches altitude 10° 23:13:29 10° 113° (ESE) 2,459 4.6 -8.5°
Maximum altitude 23:15:12 11° 96° (E) 2,362 4.4 -8.8°
Enters shadow 23:16:04 11° 86° (E) 2,391 4.4 -9.0°
